Norfolk, NE

1:54 PM CDT on September 26, 2016 (GMT -0500)
Stefan Memorial

Weather History for KOFK - May, 2014

Change the Weather History Date:

Sunday, May 25, 2014

  Actual Average Record
Temperature  
Mean Temperature 72 °F 63 °F  
Max Temperature 84 °F 75 °F 103 °F (1967)
Min Temperature 60 °F 52 °F 30 °F (1925)
Degree Days  
Heating Degree Days 0 4  
Month to date heating degree days 202 170  
Since 1 July heating degree days 6932 6593  
Cooling Degree Days 7 2  
Month to date cooling degree days 39 34  
Year to date cooling degree days 41 46  
Growing Degree Days 22 (Base 50)    
Moisture  
Dew Point 62 °F    
Average Humidity 69    
Maximum Humidity 93    
Minimum Humidity 44    
Precipitation  
Precipitation 0.00 in 0.13 in 2.29 in (1982)
Month to date precipitation 0.43 3.09  
Year to date precipitation 4.67 8.86  
Snow  
Snow 0.00 in 0.00 in - ()
Month to date snowfall 0.0 0.3  
Since 1 July snowfall 19.9 30.8  
Snow Depth 0.00 in    
Sea Level Pressure  
Sea Level Pressure 29.94 in    
Wind  
Wind Speed 8 mph (SE)    
Max Wind Speed 17 mph    
Max Gust Speed 25 mph    
Visibility 8 miles    
Events Thunderstorm    
T = Trace of Precipitation, MM = Missing Value Source: NWS Daily Summary

Daily Weather History Graph

Daily Weather History Graph

Search for Another Location

Airport or City:

Trip Planner

Search our weather history database for the weather conditions in past years. The results will help you decide how hot, cold, wet, or windy it might be!

Date:

Astronomy

May. 25, 2014 Rise Set
Actual Time 6:00 AM CDT 8:53 PM CDT
Civil Twilight 5:27 AM CDT 9:26 PM CDT
Nautical Twilight 4:46 AM CDT 10:07 PM CDT
Astronomical Twilight 3:57 AM CDT 10:56 PM CDT
Moon 4:09 AM CDT (5/25) 5:52 PM CDT (5/25)
Length of Visible Light 15h 58m
Length of Day
14h 52m
Waning Crescent, 10% of the Moon is Illuminated
May 25
Waning Crescent
May 28
New
Jun 5
First Quarter
Jun 12
Full
Jun 19
Last Quarter

Hourly Weather History & Observations

Time (CDT) Temp. Heat Index Dew Point Humidity Pressure Visibility Wind Dir Wind Speed Gust Speed Precip Events Conditions
12:37 AM 64.0 °F - 59.0 °F 84% 30.01 in 10.0 mi SSE 6.9 mph - N/A   Mostly Cloudy
12:49 AM 63.0 °F - 59.0 °F 87% 30.01 in 10.0 mi SSE 5.8 mph - N/A   Scattered Clouds
12:56 AM 62.1 °F - 59.0 °F 90% 29.99 in 10.0 mi SSE 5.8 mph - N/A   Partly Cloudy
1:47 AM 60.1 °F - 57.9 °F 93% 30.00 in 10.0 mi Calm Calm - N/A   Mostly Cloudy
1:56 AM 60.1 °F - 57.9 °F 93% 29.97 in 9.0 mi Calm Calm - N/A   Mostly Cloudy
2:56 AM 63.0 °F - 60.1 °F 90% 29.95 in 9.0 mi ESE 4.6 mph - N/A   Mostly Cloudy
3:18 AM 63.0 °F - 60.1 °F 90% 29.98 in 8.0 mi ESE 5.8 mph - N/A   Mostly Cloudy
3:56 AM 64.0 °F - 61.0 °F 90% 29.95 in 8.0 mi ESE 5.8 mph - N/A   Overcast
4:47 AM 64.0 °F - 61.0 °F 90% 29.97 in 8.0 mi SE 5.8 mph - N/A   Overcast
4:56 AM 64.0 °F - 61.0 °F 90% 29.94 in 8.0 mi SE 6.9 mph - N/A   Overcast
5:04 AM 64.0 °F - 61.0 °F 90% 29.97 in 8.0 mi SE 6.9 mph - N/A   Overcast
5:34 AM 64.0 °F - 61.0 °F 90% 29.97 in 7.0 mi ESE 4.6 mph - N/A   Overcast
5:56 AM 64.0 °F - 61.0 °F 90% 29.94 in 6.0 mi ESE 4.6 mph - N/A   Overcast
6:10 AM 64.0 °F - 61.0 °F 90% 29.97 in 6.0 mi SE 4.6 mph - N/A   Overcast
6:56 AM 64.9 °F - 62.1 °F 90% 29.95 in 2.5 mi SE 5.8 mph - N/A   Overcast
7:14 AM 64.9 °F - 63.0 °F 93% 29.98 in 1.2 mi ESE 5.8 mph - N/A   Overcast
7:56 AM 64.9 °F - 63.0 °F 93% 29.95 in 1.2 mi ESE 5.8 mph - N/A   Overcast
8:56 AM 66.0 °F - 64.0 °F 93% 29.95 in 1.5 mi ESE 6.9 mph - N/A   Overcast
9:12 AM 66.0 °F - 64.0 °F 93% 29.96 in 2.5 mi ESE 10.4 mph - N/A   Overcast
9:20 AM 66.2 °F - 64.4 °F 94% 29.97 in 4.0 mi ESE 8.1 mph - N/A   Overcast
9:35 AM 68.0 °F - 64.4 °F 88% 29.97 in 6.0 mi SE 8.1 mph - N/A   Overcast
10:04 AM 69.1 °F - 64.0 °F 84% 29.96 in 10.0 mi SE 12.7 mph - N/A   Overcast
10:56 AM 71.1 °F - 63.0 °F 75% 29.94 in 10.0 mi SSE 11.5 mph - N/A   Overcast
11:56 AM 73.0 °F - 63.0 °F 71% 29.94 in 10.0 mi South 9.2 mph - N/A   Overcast
12:56 PM 75.9 °F - 64.0 °F 67% 29.93 in 10.0 mi SE 10.4 mph 18.4 mph N/A   Overcast
1:04 PM 75.9 °F - 64.0 °F 67% 29.95 in 10.0 mi SSE 12.7 mph 17.3 mph N/A   Overcast
1:31 PM 75.0 °F - 64.0 °F 69% 29.96 in 10.0 mi SSE 11.5 mph - N/A   Overcast
1:38 PM 75.9 °F - 64.0 °F 67% 29.96 in 10.0 mi SSE 10.4 mph - N/A   Overcast
1:56 PM 75.0 °F - 64.0 °F 69% 29.94 in 10.0 mi SE 8.1 mph - N/A   Overcast
2:07 PM 75.9 °F - 64.0 °F 67% 29.95 in 10.0 mi SSE 5.8 mph - N/A   Overcast
2:14 PM 77.0 °F - 64.0 °F 64% 29.95 in 10.0 mi South 8.1 mph - N/A   Overcast
2:56 PM 75.9 °F - 64.9 °F 69% 29.91 in 10.0 mi ESE 11.5 mph - N/A   Mostly Cloudy
3:46 PM 80.6 °F 82.3 °F 64.4 °F 58% 29.92 in 10.0 mi SE 13.8 mph 19.6 mph N/A   Mostly Cloudy
3:54 PM 80.6 °F 82.3 °F 64.4 °F 58% 29.91 in 10.0 mi ESE 13.8 mph - N/A   Scattered Clouds
3:56 PM 80.1 °F 81.9 °F 64.9 °F 60% 29.88 in 10.0 mi SE 9.2 mph 19.6 mph N/A   Scattered Clouds
4:56 PM 82.0 °F 83.0 °F 62.1 °F 51% 29.86 in 10.0 mi South 12.7 mph - N/A   Clear
5:56 PM 84.0 °F 84.0 °F 60.1 °F 44% 29.82 in 10.0 mi SSW 11.5 mph - N/A   Clear
6:56 PM 79.0 °F - 64.0 °F 60% 29.81 in 10.0 mi SSE 8.1 mph - N/A   Clear
7:52 PM 77.0 °F - 62.6 °F 61% 29.87 in 10.0 mi South 5.8 mph - N/A Thunderstorm Clear
7:56 PM 78.1 °F - 63.0 °F 60% 29.85 in 10.0 mi South 10.4 mph - N/A Thunderstorm Thunderstorm
8:14 PM 75.9 °F - 61.0 °F 60% 29.89 in 10.0 mi SSE 11.5 mph - N/A   Partly Cloudy
8:56 PM 73.0 °F - 62.1 °F 68% 29.88 in 10.0 mi South 6.9 mph - N/A   Clear
10:56 PM 70.0 °F - 62.1 °F 76% 29.92 in 10.0 mi SE 9.2 mph - N/A   Mostly Cloudy
11:56 PM 68.0 °F - 61.0 °F 78% 29.92 in 10.0 mi SSE 11.5 mph - N/A   Mostly Cloudy